カタログに戻る

CZ-3B R/B

運用中GTO
NORAD 49331·ROCKET BODY·🇨🇳 China

打ち上げ Oct 24, 2021 から Xichang Satellite Launch Center

Loading…

TLE

古いSource: Space-Track

元期: Sep 13, 2026, 15:07 UTC

1 49331U 21094B   26256.63052351  .00000944  00000-0  78499-3 0  9999
2 49331  28.3011  83.5512 7113470 221.0808  54.8316  2.45419479 42632

AllMySatでCZ-3B R/Bをリアルタイム追跡

Download on the App Store